Lid_Strength_Index
4 3 3 2 2 2 2 2 2 2 2 2 2 3 2 3 3 4 4 4 4 4 4 3 4 4 4 4 4 4 4 4 5 4 4 2 2 1 1 1 1 1 2
3 3 2 2 2 2 2 2 2 2 2 2 3 2 2 2 3 3 3 3 3 3 3 3 4 3 4 4 4 4 4 4 4 5 5 4 2 2 2 1 1 0 1
2 3 3 3 2 2 2 2 2 2 3 3 2 2 3 3 3 3 3 2 3 3 3 3 3 3 4 4 4 4 4 3 4 4 4 2 2 1 2 2 1 1 1
3 3 3 3 2 2 2 2 2 2 3 3 2 2 3 3 3 3 2 2 2 2 2 3 3 3 4 4 3 4 3 4 4 4 3 3 3 2 2 2 3 2 2
3 3 3 2 3 3 3 3 2 3 3 2 3 3 3 2 2 2 2 3 3 3 3 2 2 3 3 3 3 4 3 4 4 5 3 3 3 3 3 2 3 3 3
3 3 3 3 3 3 3 3 3 4 3 3 3 3 3 2 8 6 3 2 3 3 3 3 4 4 5 6 5 4 3 4 4 5 3 4 3 3 2 3 3 3 4
3 3 3 4 4 4 4 4 4 5 4 4 4 4 4 4 9 8 6 2 3 3 4 4 4 2 4 3 7 6 6 6 5 4 3 3 3 2 2 3 3 4 4
3 3 3 3 3 3 4 4 5 5 4 4 4 4 4 6 10 10 7 3 3 4 4 4 3 4 4 4 4 4 4 4 3 3 3 3 2 1 2 2 3 4 3
3 3 3 2 3 4 4 4 4 4 4 4 5 5 5 6 11 11 5 3 4 4 3 3 3 4 8 9 4 5 4 4 8 8 8 8 9 7 4 2 4 4 5
3 3 2 2 4 5 4 5 4 3 4 4 5 5 7 5 11 11 5 3 4 4 3 3 7 5 10 10 4 4 4 4 4 4 5 7 6 6 6 2 3 3 5
3 2 2 3 4 4 4 3 4 3 3 4 5 5 5 6 8 11 9 3 3 4 4 4 6 11 11 11 7 3 5 3 5 3 3 3 3 3 3 3 2 2 4
4 2 3 4 3 3 3 3 3 3 4 5 5 6 6 6 10 11 11 8 7 4 3 3 7 11 11 11 7 11 10 6 3 3 3 3 3 3 3 2 2 3 3
3 3 3 3 3 3 3 3 4 3 4 4 5 6 7 6 6 12 12 12 10 5 4 6 11 12 11 10 11 10 8 3 3 3 4 3 3 2 3 3 3 3 3
3 3 3 3 3 3 2 3 3 4 3 3 4 6 6 6 5 6 7 8 10 7 8 7 8 9 9 8 8 7 4 3 3 4 4 3 3 2 3 3 3 3 4
3 3 3 3 3 6 8 7 3 4 4 3 4 5 5 6 5 7 6 4 5 7 6 5 4 4 5 5 4 3 4 4 4 4 4 4 4 3 3 3 3 3 4
4 3 3 4 4 5 6 8 14 13 11 10 10 6 4 8 11 11 11 11 11 11 5 4 4 4 4 4 4 4 4 5 4 4 4 4 4 4 3 3 3 4 6
3 4 4 5 5 6 5 5 7 10 13 13 12 11 8 9 11 11 11 11 11 8 4 4 4 4 4 3 3 3 5 4 3 4 4 4 4 3 4 3 3 3 3
3 8 3 4 4 5 5 6 5 5 5 6 13 12 13 11 11 12 12 9 6 5 4 4 4 4 4 4 3 4 4 4 4 4 4 4 4 4 3 3 3 3 3
3 3 3 4 5 5 5 5 5 5 5 7 9 11 13 13 13 13 11 3 3 3 4 4 4 4 4 4 3 3 4 4 4 4 4 4 4 4 4 4 3 9 7
2 8 5 4 4 4 5 5 5 5 5 5 5 7 8 6 4 5 5 4 4 3 3 4 4 4 4 3 3 3 4 4 3 4 4 3 3 3 4 4 4 4 5
2 4 9 3 4 4 4 5 6 5 5 4 5 7 11 4 5 4 4 4 3 3 3 3 3 3 3 3 3 3 3 3 3 3 3 3 2 3 3 3 4 4 4
2 3 3 3 3 3 4 4 5 5 4 5 5 8 13 4 4 4 4 3 2 2 2 2 3 3 2 2 2 3 3 2 2 2 2 3 2 2 2 3 3 3 3
3 3 3 3 3 7 4 3 4 4 4 4 5 7 5 6 4 5 7 7 8 8 8 8 7 8 8 8 7 6 3 2 2 2 2 2 2 3 2 3 3 3 4
4 4 5 4 4 4 3 3 4 7 4 4 5 5 7 8 9 10 10 10 11 12 11 11 11 12 12 11 11 11 11 11 9 6 4 3 2 5 2 2 2 2 3
8 8 7 7 6 4 4 4 4 4 4 4 6 8 9 10 11 12 12 13 13 14 14 14 13 13 14 15 14 14 16 16 11 12 5 3 2 2 2 2 3 4 4
10 10 9 9 10 7 6 6 8 9 9 9 10 11 12 12 12 13 13 14 14 14 14 14 14 15 15 15 15 16 16 15 13 14 8 8 8 7 6 6 6 5 6